PTAJQ SSPG-SBBI

Flight info

Callsign PTAJQ
Flight time N/A
Altitude 4500
Route DCT 2533S04836W/N0180A065 REA 2525S04906W DCT
Aircraft BE58/L-SD/S

Departure

Time N/A
Airport Paranaguá Airport (SSPG)

Arrival

Time 2026-04-15 19:36
Airport Bacacheri Airport (SBBI)
Time Latitude Longitude Altitude Speed Heading
2026-04-15 19:32 -25.43471 -49.14493 5427 ft 169 kts 294°
2026-04-15 19:32 -25.43041 -49.15689 5337 ft 168 kts 293°
2026-04-15 19:32 -25.42606 -49.16882 5233 ft 163 kts 294°
2026-04-15 19:32 -25.42182 -49.18036 5120 ft 161 kts 294°
2026-04-15 19:33 -25.41760 -49.19179 4995 ft 159 kts 296°
2026-04-15 19:33 -25.41030 -49.20027 4852 ft 153 kts 333°
2026-04-15 19:33 -25.40095 -49.20593 4725 ft 152 kts 333°
2026-04-15 19:33 -25.39159 -49.21157 4606 ft 146 kts 334°
2026-04-15 19:34 -25.38330 -49.21653 4480 ft 127 kts 335°
2026-04-15 19:34 -25.37593 -49.22074 4379 ft 115 kts 336°
2026-04-15 19:34 -25.36893 -49.22465 4274 ft 109 kts 336°
2026-04-15 19:34 -25.36487 -49.23117 4156 ft 111 kts 269°
2026-04-15 19:35 -25.36801 -49.23882 4056 ft 108 kts 231°
2026-04-15 19:35 -25.37341 -49.24427 3958 ft 105 kts 194°
2026-04-15 19:35 -25.38062 -49.24313 3666 ft 106 kts 162°
2026-04-15 19:35 -25.38730 -49.24018 3438 ft 101 kts 153°
2026-04-15 19:36 -25.39374 -49.23712 3232 ft 101 kts 154°
2026-04-15 19:36 -25.40019 -49.23420 3051 ft 92 kts 154°
2026-04-15 19:36 -25.40498 -49.23205 3044 ft 58 kts 156°
2026-04-15 19:36 -25.40770 -49.23081 3045 ft 31 kts 158°
2026-04-15 19:37 -25.40952 -49.22998 3046 ft 25 kts 159°
2026-04-15 19:37 -25.41073 -49.22945 3046 ft 10 kts 146°
2026-04-15 19:37 -25.41034 -49.22911 3046 ft 9 kts
2026-04-15 19:37 -25.40970 -49.22933 3046 ft 9 kts 337°
2026-04-15 19:38 -25.40906 -49.22963 3046 ft 10 kts 336°
2026-04-15 19:38 -25.40838 -49.22992 3045 ft 10 kts 338°
2026-04-15 19:38 -25.40770 -49.23023 3045 ft 10 kts 332°
2026-04-15 19:38 -25.40702 -49.23054 3044 ft 10 kts 339°
2026-04-15 19:39 -25.40634 -49.23087 3044 ft 10 kts 346°
2026-04-15 19:39 -25.40568 -49.23114 3044 ft 10 kts 338°
2026-04-15 19:39 -25.40502 -49.23144 3043 ft 10 kts 337°
2026-04-15 19:39 -25.40436 -49.23176 3043 ft 7 kts 336°
2026-04-15 19:40 -25.40412 -49.23170 3043 ft 5 kts 62°
2026-04-15 19:40 -25.40396 -49.23125 3042 ft 7 kts 70°
2026-04-15 19:40 -25.40375 -49.23062 3042 ft 10 kts 71°
2026-04-15 19:40 -25.40333 -49.23013 3041 ft 9 kts 11°
2026-04-15 19:41 -25.40283 -49.23006 3041 ft 4 kts 332°
2026-04-15 19:41 -25.40279 -49.23020 3041 ft 0 kts 277°